Find Starlink 31058

NORAD ID: 58677 Int'l Des: 2023-211 Owner: SPXS Country: US Constellation: starlink operational
LEOCIRCULAR

Live Position

Loading 3D Globe...

About Starlink 31058

Description loading...

Upcoming Passes

Passes for default location (London). Set your location on the main map for personalized predictions.

Altitude History

Loading altitude history...

Two-Line Element Set

1 58677U 23211L 26133.13791653 .00001713 00000-0 71764-4 0 9993
2 58677 43.0004 81.0943 0000954 262.1156 97.9587 15.27576714132323
Epoch: May 13, 2026 • Age: 5 hours

Current Status

Altitude 482.4 km
Velocity 7.63 km/s
Sub-Earth Point 13.84°N, 102.5°E
Launch Date Dec 29, 2023
Age 2.3 years
Type internet

Technical Details

Classification Payload
Mass 730.00 kg
Dry Mass 700.00 kg
Total Mass 730.00 kg
Length 0.30 m
Diameter 4.10 m
Span 29.00 m
Shape Box + pan
Manufacturer SPXS
Bus Type Starlink V2M
Phase Status In Orbit
Owner/State SPXS/US

Most Searched